TimeEDT,TemperatureF,Dew PointF,Humidity,Sea Level PressureIn,VisibilityMPH,Wind Direction,Wind SpeedMPH,Gust SpeedMPH,PrecipitationIn,Events,Conditions,WindDirDegrees,DateUTC
12:15 AM,63.7,62.1,94,30.31,1.5,Calm,Calm,-,N/A,,Overcast,0,2013-08-21 04:15:00
12:35 AM,63.5,61.9,94,30.32,1.5,Calm,Calm,-,N/A,,Overcast,0,2013-08-21 04:35:00
12:55 AM,63.1,61.7,95,30.31,0.8,Calm,Calm,-,N/A,,Overcast,0,2013-08-21 04:55:00
1:15 AM,63.7,62.1,94,30.31,7.0,Calm,Calm,-,N/A,,Overcast,0,2013-08-21 05:15:00
1:35 AM,63.9,62.1,94,30.31,10.0,Calm,Calm,-,N/A,,Mostly Cloudy,0,2013-08-21 05:35:00
1:55 AM,63.1,61.3,94,30.31,5.0,Calm,Calm,-,N/A,,Mostly Cloudy,0,2013-08-21 05:55:00
2:15 AM,63.9,62.1,94,30.30,10.0,Calm,Calm,-,N/A,,Scattered Clouds,0,2013-08-21 06:15:00
2:35 AM,63.5,61.0,91,30.30,10.0,Calm,Calm,-,N/A,,Clear,0,2013-08-21 06:35:00
2:55 AM,63.7,61.9,94,30.29,10.0,Calm,Calm,-,N/A,,Clear,0,2013-08-21 06:55:00
3:15 AM,63.7,61.7,93,30.29,10.0,Calm,Calm,-,N/A,,Clear,0,2013-08-21 07:15:00
3:35 AM,63.9,61.9,93,30.29,10.0,Calm,Calm,-,N/A,,Clear,0,2013-08-21 07:35:00
3:55 AM,63.3,61.2,93,30.29,5.0,Calm,Calm,-,N/A,,Scattered Clouds,0,2013-08-21 07:55:00
4:15 AM,63.5,61.5,93,30.28,10.0,Calm,Calm,-,N/A,,Scattered Clouds,0,2013-08-21 08:15:00
4:35 AM,64.2,61.9,92,30.28,10.0,Calm,Calm,-,N/A,,Scattered Clouds,0,2013-08-21 08:35:00
4:55 AM,61.9,60.1,94,30.29,0.5,Calm,Calm,-,N/A,Fog,Fog,0,2013-08-21 08:55:00
5:15 AM,62.6,60.8,94,30.29,4.0,Calm,Calm,-,N/A,,Overcast,0,2013-08-21 09:15:00
5:35 AM,61.7,59.9,94,30.29,1.2,Calm,Calm,-,N/A,,Mostly Cloudy,0,2013-08-21 09:35:00
5:55 AM,61.7,59.9,94,30.30,0.5,Calm,Calm,-,N/A,Fog,Fog,0,2013-08-21 09:55:00
6:15 AM,62.2,60.8,95,30.30,10.0,Calm,Calm,-,N/A,,Mostly Cloudy,0,2013-08-21 10:15:00
6:35 AM,62.6,61.0,94,30.31,10.0,Calm,Calm,-,N/A,,Scattered Clouds,0,2013-08-21 10:35:00
6:55 AM,62.2,60.8,95,30.31,7.0,Calm,Calm,-,N/A,,Clear,0,2013-08-21 10:55:00
7:15 AM,62.2,60.6,94,30.32,5.0,Calm,Calm,-,N/A,,Clear,0,2013-08-21 11:15:00
7:35 AM,61.5,59.9,94,30.32,1.2,Calm,Calm,-,N/A,,Mostly Cloudy,0,2013-08-21 11:35:00
7:55 AM,61.7,60.1,94,30.33,0.2,Calm,Calm,-,N/A,Fog,Fog,0,2013-08-21 11:55:00
8:15 AM,62.1,60.4,94,30.33,1.5,West,3.5,-,N/A,,Overcast,260,2013-08-21 12:15:00
8:35 AM,63.1,61.5,94,30.34,10.0,Calm,Calm,-,N/A,,Overcast,0,2013-08-21 12:35:00
8:55 AM,64.2,61.7,91,30.33,10.0,Calm,Calm,-,N/A,,Overcast,0,2013-08-21 12:55:00
9:15 AM,64.6,62.6,93,30.32,10.0,Calm,Calm,-,N/A,,Mostly Cloudy,0,2013-08-21 13:15:00
9:35 AM,64.8,62.6,93,30.32,10.0,Calm,Calm,-,N/A,,Mostly Cloudy,0,2013-08-21 13:35:00
9:55 AM,65.5,63.3,93,30.32,10.0,Calm,Calm,-,N/A,,Overcast,0,2013-08-21 13:55:00
10:15 AM,66.7,63.1,88,30.33,10.0,Calm,Calm,-,N/A,,Mostly Cloudy,0,2013-08-21 14:15:00
10:35 AM,66.2,63.7,92,30.35,10.0,Calm,Calm,-,N/A,,Mostly Cloudy,0,2013-08-21 14:35:00
10:55 AM,66.9,63.3,88,30.35,10.0,Calm,Calm,-,N/A,,Overcast,0,2013-08-21 14:55:00
11:15 AM,66.9,63.5,89,30.36,10.0,Calm,Calm,-,N/A,Rain,Rain,0,2013-08-21 15:15:00
11:35 AM,67.1,64.4,91,30.36,7.0,Calm,Calm,-,N/A,Rain,Light Rain,0,2013-08-21 15:35:00
11:55 AM,67.3,64.8,92,30.36,10.0,Calm,Calm,-,N/A,,Overcast,0,2013-08-21 15:55:00
12:15 PM,68.9,65.8,90,30.35,10.0,Calm,Calm,-,N/A,,Overcast,0,2013-08-21 16:15:00
12:35 PM,69.8,64.6,83,30.34,10.0,Calm,Calm,-,N/A,,Mostly Cloudy,0,2013-08-21 16:35:00
12:55 PM,70.7,64.9,82,30.34,10.0,Calm,Calm,-,N/A,,Mostly Cloudy,0,2013-08-21 16:55:00
1:15 PM,72.3,65.7,79,30.33,10.0,Calm,Calm,-,N/A,,Mostly Cloudy,0,2013-08-21 17:15:00
1:35 PM,71.6,65.5,81,30.33,10.0,ENE,3.5,-,N/A,,Scattered Clouds,60,2013-08-21 17:35:00
1:55 PM,71.6,64.8,79,30.32,10.0,ESE,4.6,-,N/A,,Scattered Clouds,120,2013-08-21 17:55:00
2:15 PM,72.0,64.6,77,30.31,10.0,Calm,Calm,-,N/A,,Clear,0,2013-08-21 18:15:00
2:35 PM,72.9,64.8,76,30.30,10.0,SSE,5.8,-,N/A,,Scattered Clouds,150,2013-08-21 18:35:00
2:55 PM,73.8,66.4,78,30.30,10.0,SE,4.6,-,N/A,,Mostly Cloudy,140,2013-08-21 18:55:00
3:15 PM,74.3,64.0,70,30.29,10.0,Calm,Calm,-,N/A,,Scattered Clouds,0,2013-08-21 19:15:00
3:35 PM,75.0,65.1,71,30.29,10.0,SE,5.8,-,N/A,,Scattered Clouds,140,2013-08-21 19:35:00
3:55 PM,74.7,65.3,73,30.28,10.0,SE,4.6,-,N/A,,Scattered Clouds,130,2013-08-21 19:55:00
4:15 PM,73.6,65.5,76,30.28,10.0,SE,6.9,-,N/A,,Overcast,140,2013-08-21 20:15:00
4:35 PM,71.8,65.3,80,30.27,10.0,ESE,4.6,-,N/A,,Overcast,120,2013-08-21 20:35:00
4:55 PM,72.3,65.5,79,30.28,10.0,Calm,Calm,-,N/A,,Overcast,0,2013-08-21 20:55:00
5:15 PM,72.5,66.0,80,30.27,10.0,SSE,3.5,-,N/A,,Overcast,150,2013-08-21 21:15:00
5:35 PM,71.8,66.2,83,30.26,10.0,ESE,3.5,-,N/A,,Overcast,120,2013-08-21 21:35:00
5:55 PM,71.4,66.0,83,30.26,10.0,SE,3.5,-,N/A,,Overcast,140,2013-08-21 21:55:00
6:15 PM,70.7,65.5,83,30.25,10.0,Calm,Calm,-,N/A,,Overcast,0,2013-08-21 22:15:00
6:35 PM,70.7,65.3,83,30.25,10.0,Calm,Calm,-,N/A,,Scattered Clouds,0,2013-08-21 22:35:00
6:55 PM,71.2,65.8,83,30.26,10.0,Calm,Calm,-,N/A,,Mostly Cloudy,0,2013-08-21 22:55:00
7:15 PM,70.2,65.7,86,30.25,10.0,Calm,Calm,-,N/A,,Scattered Clouds,0,2013-08-21 23:15:00
7:35 PM,69.4,66.2,89,30.26,10.0,Calm,Calm,-,N/A,,Scattered Clouds,0,2013-08-21 23:35:00
7:55 PM,68.9,66.2,91,30.27,10.0,Calm,Calm,-,N/A,,Scattered Clouds,0,2013-08-21 23:55:00
8:15 PM,68.4,66.2,93,30.26,10.0,Calm,Calm,-,N/A,,Mostly Cloudy,0,2013-08-22 00:15:00
8:35 PM,68.0,65.7,92,30.26,10.0,Calm,Calm,-,N/A,,Mostly Cloudy,0,2013-08-22 00:35:00
8:55 PM,67.3,65.5,94,30.26,5.0,Calm,Calm,-,N/A,,Mostly Cloudy,0,2013-08-22 00:55:00
9:15 PM,67.1,65.3,94,30.27,7.0,Calm,Calm,-,N/A,,Mostly Cloudy,0,2013-08-22 01:15:00
9:35 PM,67.1,65.3,94,30.27,10.0,Calm,Calm,-,N/A,,Overcast,0,2013-08-22 01:35:00
9:55 PM,67.5,65.3,93,30.29,7.0,Calm,Calm,-,N/A,,Overcast,0,2013-08-22 01:55:00
10:15 PM,67.3,64.4,90,30.29,10.0,Calm,Calm,-,N/A,,Scattered Clouds,0,2013-08-22 02:15:00
10:35 PM,66.6,63.7,90,30.29,10.0,Calm,Calm,-,N/A,,Scattered Clouds,0,2013-08-22 02:35:00
10:55 PM,66.4,62.6,88,30.29,10.0,Calm,Calm,-,N/A,,Scattered Clouds,0,2013-08-22 02:55:00
11:15 PM,67.3,61.7,82,30.29,10.0,Calm,Calm,-,N/A,,Scattered Clouds,0,2013-08-22 03:15:00
11:35 PM,65.1,62.6,92,30.29,10.0,Calm,Calm,-,N/A,,Mostly Cloudy,0,2013-08-22 03:35:00
11:55 PM,65.5,63.3,93,30.29,10.0,Calm,Calm,-,N/A,,Overcast,0,2013-08-22 03:55:00